Weather History for Gulkana, AK

Change the Weather History Date:

Saturday, October 29, 2011

  Actual Average Record
Temperature  
Mean Temperature 15 °F -  
Max Temperature 21 °F 24 °F 48 °F (2002)
Min Temperature 9 °F 10 °F -17 °F (2008)
Degree Days  
Heating Degree Days 50    
Moisture  
Dew Point 14 °F    
Average Humidity 90    
Maximum Humidity 93    
Minimum Humidity 86    
Precipitation  
Precipitation 0.00 in - - ()
Snow  
Snow 0.00 in - - ()
Snow Depth 1.00 in    
Sea Level Pressure  
Sea Level Pressure 29.28 in    
Wind  
Wind Speed 5 mph (NNE)    
Max Wind Speed 10 mph    
Max Gust Speed -    
Visibility 10 miles    
Events Fog , Snow    
Averages and records for this station are not official NWS values.
T = Trace of Precipitation, MM = Missing Value Source: NWS Daily Summary

Daily Weather History Graph

Daily Weather History Graph

Search for Another Location

Airport:

Trip Planner

Search our weather history database for the weather conditions in past years. The results will help you decide how hot, cold, wet, or windy it might be!

Date:

Astronomy

Oct. 29, 2011 Rise Set
Actual Time 9:05 AM AKDT 5:44 PM AKDT
Civil Twilight 8:17 AM AKDT 6:32 PM AKDT
Nautical Twilight 7:24 AM AKDT 7:25 PM AKDT
Astronomical Twilight 6:33 AM AKDT 8:16 PM AKDT
Moon 1:52 PM AKDT (10/29) 7:03 PM AKDT (10/29)
Length of Visible Light 10h 15m
Length of Day
8h 39m
Waxing Crescent, 13% of the Moon is Illuminated
Oct 29
Waxing Crescent
Nov 2
First Quarter
Nov 10
Full
Nov 18
Last Quarter
Nov 24
New

Hourly Weather History & Observations

Time (AKDT) Temp. Windchill Dew Point Humidity Pressure Visibility Wind Dir Wind Speed Gust Speed Precip Events Conditions
12:53 AM 21.9 °F 15.7 °F 19.0 °F 89% 29.39 in 10.0 mi NE 4.6 mph - N/A   Overcast
1:53 AM 21.0 °F 13.4 °F 18.0 °F 88% 29.39 in 10.0 mi NNE 5.8 mph - N/A   Overcast
2:15 AM 21.2 °F 10.9 °F 17.6 °F 86% 29.28 in 10.0 mi NNE 9.2 mph - N/A   Overcast
2:29 AM 19.4 °F 10.4 °F 17.6 °F 93% 29.28 in 10.0 mi NNE 6.9 mph - N/A   Overcast
2:53 AM 19.9 °F 9.3 °F 18.0 °F 92% 29.38 in 10.0 mi NNE 9.2 mph - N/A   Overcast
3:53 AM 19.0 °F 8.2 °F 16.0 °F 88% 29.37 in 10.0 mi NNE 9.2 mph - N/A   Overcast
4:22 AM 17.6 °F 5.7 °F 15.8 °F 93% 29.26 in 10.0 mi NNE 10.4 mph - N/A   Overcast
4:39 AM 17.6 °F 7.3 °F 15.8 °F 93% 29.26 in 10.0 mi NNE 8.1 mph - N/A   Overcast
4:49 AM 17.6 °F 8.2 °F 15.8 °F 93% 29.26 in 10.0 mi NNE 6.9 mph - N/A   Overcast
4:53 AM 17.1 °F 5.8 °F 15.1 °F 92% 29.36 in 10.0 mi NNE 9.2 mph - N/A   Overcast
5:53 AM 15.1 °F 5.2 °F 12.9 °F 91% 29.36 in 10.0 mi NNE 6.9 mph - N/A   Overcast
6:01 AM 15.8 °F 6.1 °F 12.2 °F 86% 29.24 in 10.0 mi North 6.9 mph - N/A   Partly Cloudy
6:53 AM 15.1 °F 7.7 °F 12.9 °F 91% 29.34 in 10.0 mi North 4.6 mph - N/A   Scattered Clouds
7:53 AM 12.9 °F 6.9 °F 10.9 °F 92% 29.34 in 10.0 mi NNW 3.5 mph - N/A   Mostly Cloudy
8:15 AM 10.4 °F - 8.6 °F 92% 29.21 in 10.0 mi Calm Calm - N/A   Mostly Cloudy
8:53 AM 9.0 °F 2.4 °F 6.1 °F 88% 29.32 in 10.0 mi NNW 3.5 mph - N/A   Scattered Clouds
9:53 AM 10.9 °F 4.7 °F 8.1 °F 88% 29.31 in 10.0 mi ENE 3.5 mph - N/A   Overcast
10:53 AM 10.9 °F 4.7 °F 9.0 °F 92% 29.29 in 10.0 mi Variable 3.5 mph - N/A   Overcast
11:53 AM 12.9 °F - 10.9 °F 92% 29.27 in 4.0 mi Calm Calm - N/A   Mostly Cloudy
12:53 PM 14.0 °F - 10.9 °F 88% 29.25 in 10.0 mi Calm Calm - N/A Fog Mostly Cloudy
1:53 PM 16.0 °F - 12.9 °F 88% 29.22 in 10.0 mi Calm Calm - N/A   Mostly Cloudy
2:53 PM 17.1 °F - 14.0 °F 88% 29.22 in 10.0 mi Calm Calm - N/A   Mostly Cloudy
3:53 PM 18.0 °F 9.8 °F 15.1 °F 88% 29.22 in 10.0 mi SSE 5.8 mph - N/A   Overcast
4:53 PM 19.0 °F 11.1 °F 16.0 °F 88% 29.23 in 10.0 mi SSE 5.8 mph - N/A   Overcast
5:53 PM 19.0 °F - 16.0 °F 88% 29.23 in 10.0 mi Calm Calm - N/A   Overcast
6:53 PM 19.0 °F 12.3 °F 17.1 °F 92% 29.24 in 3.0 mi South 4.6 mph - 0.00 in Snow Light Snow
7:53 PM 19.0 °F - 17.1 °F 92% 29.26 in 5.0 mi Calm Calm - 0.00 in Snow Light Snow
8:53 PM 17.1 °F - 15.1 °F 92% 29.28 in 10.0 mi Calm Calm - 0.00 in   Overcast
9:19 PM 15.8 °F 5.1 °F 14.0 °F 93% 29.16 in 10.0 mi North 8.1 mph - N/A   Overcast
9:25 PM 17.6 °F 8.2 °F 14.0 °F 86% 29.16 in 10.0 mi North 6.9 mph - N/A   Overcast
9:53 PM 16.0 °F 8.8 °F 14.0 °F 92% 29.29 in 10.0 mi North 4.6 mph - N/A   Mostly Cloudy
10:37 PM 15.8 °F 8.6 °F 14.0 °F 93% 29.18 in 10.0 mi North 4.6 mph - N/A   Mostly Cloudy
10:53 PM 16.0 °F 7.4 °F 12.9 °F 88% 29.30 in 10.0 mi North 5.8 mph - N/A   Mostly Cloudy
11:02 PM 15.8 °F 7.2 °F 12.2 °F 86% 29.18 in 10.0 mi North 5.8 mph - N/A   Scattered Clouds
11:53 PM 15.1 °F 9.4 °F 12.0 °F 88% 29.31 in 10.0 mi North 3.5 mph - N/A   Scattered Clouds